Location: Campbell Hill
(37.9301°N, 89.5490°W)
Time: 11:00:15
(UTC+00:00)

BREEZE-M DEB (TANK) - Pass Details

Date: 07 November 2025
Orbit: 285 x 18363 km, 52.5° (Epoch: 06 December)

Event Time Altitude Azimuth Distance (km) Brightness Sun altitude
Rises 23:36:42 0° 233° (SW) 1,965 7.1 -9.1°
Reaches altitude 10° 23:38:15 10° 237° (WSW) 1,126 5.7 -9.4°
Maximum altitude 23:40:14 69° 322° (NW) 368 2.0 -9.8°
Enters shadow 23:43:35 10° 47° (NE) 1,897 5.0 -10.4°
